Location: Seale
(32.2974°N, 85.1688°W)
Time: 22:54:00
(UTC+00:00)

X-37B - Pass Details

Date: 22 January 2021
Orbit: 383 x 391 km, 45.0° (Epoch: 10 February)

Event Time Altitude Azimuth Distance (km) Brightness Sun altitude
Rises 00:15:32 0° 285° (WNW) 2,269 5.6 -15.1°
Reaches altitude 10° 00:18:30 10° 315° (NW) 1,417 3.8 -15.7°
Maximum altitude 00:20:02 13° 344° (NNW) 1,263 3.2 -16.0°
Enters shadow 00:21:06 11° 5° (N) 1,339 3.1 -16.3°
